TimeEDT,TemperatureF,Dew PointF,Humidity,Sea Level PressureIn,VisibilityMPH,Wind Direction,Wind SpeedMPH,Gust SpeedMPH,PrecipitationIn,Events,Conditions,WindDirDegrees,DateUTC
12:15 AM,69.8,60.8,73,30.12,10.0,South,10.4,-,N/A,,Clear,190,2013-08-25 04:15:00
12:35 AM,69.8,60.8,73,30.13,10.0,South,11.5,16.1,N/A,,Clear,190,2013-08-25 04:35:00
12:55 AM,69.8,60.8,73,30.13,10.0,South,10.4,16.1,N/A,,Clear,190,2013-08-25 04:55:00
1:15 AM,69.8,60.8,73,30.12,10.0,South,10.4,16.1,N/A,,Clear,190,2013-08-25 05:15:00
1:35 AM,69.8,60.8,73,30.11,10.0,South,9.2,-,N/A,,Clear,180,2013-08-25 05:35:00
1:55 AM,69.8,62.6,78,30.11,10.0,South,9.2,-,N/A,,Clear,180,2013-08-25 05:55:00
2:15 AM,69.8,60.8,73,30.11,10.0,SSW,10.4,-,N/A,,Clear,200,2013-08-25 06:15:00
2:35 AM,69.8,60.8,73,30.12,10.0,SSW,8.1,-,N/A,,Mostly Cloudy,200,2013-08-25 06:35:00
2:55 AM,69.8,60.8,73,30.11,10.0,SSW,10.4,-,N/A,,Scattered Clouds,210,2013-08-25 06:55:00
3:15 AM,68.0,60.8,78,30.10,10.0,SSW,10.4,16.1,N/A,,Mostly Cloudy,200,2013-08-25 07:15:00
3:35 AM,68.0,60.8,78,30.10,10.0,SSW,13.8,-,N/A,,Partly Cloudy,200,2013-08-25 07:35:00
3:55 AM,69.8,60.8,73,30.09,10.0,SSW,11.5,18.4,N/A,,Scattered Clouds,200,2013-08-25 07:55:00
4:15 AM,69.8,60.8,73,30.09,10.0,SSW,13.8,-,N/A,,Mostly Cloudy,210,2013-08-25 08:15:00
4:35 AM,69.8,60.8,73,30.09,10.0,SSW,15.0,20.7,N/A,,Mostly Cloudy,210,2013-08-25 08:35:00
4:55 AM,69.8,60.8,73,30.09,10.0,SSW,12.7,21.9,N/A,,Overcast,210,2013-08-25 08:55:00
5:15 AM,69.8,60.8,73,30.09,10.0,SSW,9.2,-,N/A,,Overcast,200,2013-08-25 09:15:00
5:35 AM,69.8,60.8,73,30.10,10.0,SSW,8.1,-,N/A,,Scattered Clouds,200,2013-08-25 09:35:00
5:55 AM,68.0,62.6,83,30.08,10.0,South,9.2,-,N/A,,Clear,180,2013-08-25 09:55:00
6:15 AM,68.0,62.6,83,30.06,10.0,SSW,11.5,16.1,N/A,,Scattered Clouds,200,2013-08-25 10:15:00
6:35 AM,68.0,62.6,83,30.06,10.0,SSW,10.4,-,N/A,,Partly Cloudy,200,2013-08-25 10:35:00
6:55 AM,68.0,62.6,83,30.05,10.0,SSW,9.2,-,N/A,,Clear,210,2013-08-25 10:55:00
7:15 AM,68.0,62.6,83,30.05,10.0,SSW,11.5,16.1,N/A,,Clear,210,2013-08-25 11:15:00
7:35 AM,68.0,62.6,83,30.06,10.0,SSW,12.7,17.3,N/A,,Clear,210,2013-08-25 11:35:00
7:55 AM,68.0,62.6,83,30.06,10.0,SW,9.2,-,N/A,,Clear,220,2013-08-25 11:55:00
8:15 AM,69.8,62.6,78,30.06,10.0,SSW,9.2,-,N/A,,Clear,210,2013-08-25 12:15:00
8:35 AM,69.8,64.4,83,30.05,10.0,SSW,9.2,17.3,N/A,,Partly Cloudy,210,2013-08-25 12:35:00
8:55 AM,69.8,64.4,83,30.05,10.0,SW,8.1,-,N/A,,Partly Cloudy,220,2013-08-25 12:55:00
9:15 AM,71.6,64.4,78,30.04,10.0,SW,11.5,17.3,N/A,,Scattered Clouds,220,2013-08-25 13:15:00
9:35 AM,73.4,64.4,73,30.04,10.0,SW,10.4,17.3,N/A,,Partly Cloudy,220,2013-08-25 13:35:00
9:55 AM,75.2,66.2,73,30.03,10.0,SW,16.1,25.3,N/A,,Clear,230,2013-08-25 13:55:00
10:15 AM,75.2,66.2,73,30.01,10.0,SW,16.1,25.3,N/A,,Clear,220,2013-08-25 14:15:00
10:35 AM,77.0,66.2,69,30.01,10.0,SW,18.4,26.5,N/A,,Clear,220,2013-08-25 14:35:00
10:55 AM,78.8,68.0,69,30.01,10.0,SW,15.0,24.2,N/A,,Clear,230,2013-08-25 14:55:00
11:15 AM,80.6,68.0,65,30.01,10.0,SW,16.1,21.9,N/A,,Clear,230,2013-08-25 15:15:00
11:35 AM,80.6,69.8,70,30.01,10.0,WSW,13.8,23.0,N/A,,Clear,240,2013-08-25 15:35:00
11:55 AM,82.4,69.8,66,30.00,10.0,WSW,13.8,-,N/A,,Clear,240,2013-08-25 15:55:00
12:15 PM,84.2,69.8,62,29.99,10.0,SW,16.1,21.9,N/A,,Clear,230,2013-08-25 16:15:00
12:35 PM,84.2,69.8,62,29.99,10.0,WSW,15.0,23.0,N/A,,Clear,240,2013-08-25 16:35:00
12:55 PM,86.0,71.6,62,29.98,10.0,SW,16.1,25.3,N/A,,Clear,230,2013-08-25 16:55:00
1:15 PM,87.8,71.6,58,29.97,10.0,WSW,17.3,21.9,N/A,,Clear,240,2013-08-25 17:15:00
1:35 PM,86.0,71.6,62,29.97,10.0,SW,12.7,18.4,N/A,,Clear,230,2013-08-25 17:35:00
1:55 PM,84.2,69.8,62,29.96,10.0,South,12.7,-,N/A,,Clear,190,2013-08-25 17:55:00
2:15 PM,82.4,69.8,66,29.96,9.0,South,9.2,-,N/A,,Clear,180,2013-08-25 18:15:00
2:35 PM,82.4,69.8,66,29.95,10.0,South,10.4,-,N/A,,Clear,190,2013-08-25 18:35:00
2:55 PM,82.4,69.8,66,29.95,10.0,South,12.7,-,N/A,,Clear,180,2013-08-25 18:55:00
3:15 PM,80.6,69.8,70,29.94,10.0,SSW,13.8,-,N/A,,Clear,200,2013-08-25 19:15:00
3:35 PM,82.4,69.8,66,29.93,10.0,SSW,12.7,17.3,N/A,,Clear,200,2013-08-25 19:35:00
3:55 PM,82.4,69.8,66,29.93,10.0,South,11.5,-,N/A,,Clear,190,2013-08-25 19:55:00
4:15 PM,82.4,69.8,66,29.93,10.0,South,11.5,-,N/A,,Clear,190,2013-08-25 20:15:00
4:35 PM,82.4,69.8,66,29.93,10.0,South,9.2,-,N/A,,Clear,180,2013-08-25 20:35:00
4:55 PM,82.4,69.8,66,29.93,10.0,South,10.4,-,N/A,,Clear,190,2013-08-25 20:55:00
5:15 PM,82.4,69.8,66,29.93,10.0,South,9.2,-,N/A,,Clear,180,2013-08-25 21:15:00
5:35 PM,82.4,69.8,66,29.92,10.0,South,12.7,-,N/A,,Clear,190,2013-08-25 21:35:00
5:55 PM,82.4,69.8,66,29.93,10.0,SSW,13.8,-,N/A,,Clear,200,2013-08-25 21:55:00
6:15 PM,82.4,69.8,66,29.93,10.0,South,11.5,-,N/A,,Clear,190,2013-08-25 22:15:00
6:35 PM,82.4,69.8,66,29.93,10.0,SSW,10.4,16.1,N/A,,Clear,200,2013-08-25 22:35:00
6:55 PM,80.6,69.8,70,29.93,10.0,South,12.7,-,N/A,,Clear,190,2013-08-25 22:55:00
7:15 PM,80.6,68.0,65,29.93,10.0,SSW,11.5,-,N/A,,Clear,210,2013-08-25 23:15:00
7:35 PM,80.6,69.8,70,29.93,10.0,South,9.2,-,N/A,,Partly Cloudy,190,2013-08-25 23:35:00
7:55 PM,78.8,68.0,69,29.93,10.0,South,8.1,-,N/A,,Clear,190,2013-08-25 23:55:00
8:15 PM,78.8,68.0,69,29.93,10.0,SSW,6.9,-,N/A,,Clear,210,2013-08-26 00:15:00
8:35 PM,78.8,68.0,69,29.94,10.0,SSW,4.6,-,N/A,,Clear,210,2013-08-26 00:35:00
8:55 PM,78.8,68.0,69,29.94,10.0,SSW,5.8,-,N/A,,Clear,210,2013-08-26 00:55:00
9:15 PM,77.0,69.8,78,29.94,10.0,SSW,6.9,-,N/A,,Clear,200,2013-08-26 01:15:00
9:35 PM,77.0,68.0,74,29.95,10.0,SSW,6.9,-,N/A,,Clear,210,2013-08-26 01:35:00
9:55 PM,77.0,68.0,74,29.95,10.0,SSW,6.9,-,N/A,,Clear,210,2013-08-26 01:55:00
10:15 PM,78.8,69.8,74,29.95,10.0,SSW,6.9,-,N/A,,Clear,210,2013-08-26 02:15:00
10:35 PM,78.8,69.8,74,29.96,10.0,SW,5.8,-,N/A,,Clear,220,2013-08-26 02:35:00
10:55 PM,78.8,69.8,74,29.96,10.0,SSW,6.9,-,N/A,,Clear,210,2013-08-26 02:55:00
11:15 PM,77.0,69.8,78,29.96,10.0,South,4.6,-,N/A,,Clear,190,2013-08-26 03:15:00
11:35 PM,75.2,68.0,78,29.95,10.0,SSW,6.9,-,N/A,,Clear,210,2013-08-26 03:35:00
11:55 PM,77.0,69.8,78,29.95,10.0,SW,6.9,-,N/A,,Clear,220,2013-08-26 03:55:00